Location: St. Louis
(38.6270°N, 90.1994°W)
Time: 07:51:44
(UTC-06:00)

Transit 4A - Pass Details

Date: 06 December 2021
Orbit: 864 x 981 km, 66.8° (Epoch: 19 January)

Event Time Altitude Azimuth Distance (km) Brightness Sun altitude
Rises 17:44:52 0° 187° (S) 3,435 11.2 -12.5°
Reaches altitude 10° 17:47:24 10° 181° (S) 2,510 10.4 -13.0°
Maximum altitude 17:52:51 44° 111° (ESE) 1,214 8.2 -14.0°
Enters shadow 17:56:53 18° 48° (NE) 2,048 9.2 -14.8°
Drops below altitude 10° 17:58:27 10° 41° (NE) 2,584 - -15.1°
Sets 18:01:06 0° 35° (NE) 3,548 - -15.6°
